Regional Weather Roundup
Issued by NWS

Home | Current Version | Previous Version | Graphics & Text | Print | Product List | Glossary On
Versions: 1 2 3 4 5 6 7 8 9 10 11 12 13 14 15 16 17 18 19 20 21 22 23 24 25 26 27 28 29 30 31 32 33 34 35 36 37 38 39 40 41 42 43 44 45 46 47 48 49 50
000
ASUS45 KBOI 260210
RWRID

IDAHO REGIONAL WEATHER ROUNDUP
NATIONAL WEATHER SERVICE BOISE ID
800 PM MDT SUN SEP 25 2016

NOTE: "FAIR" INDICATES FEW OR NO CLOUDS BELOW 12000 FEET
WITH NO SIGNIFICANT WEATHER AND/OR OBSTRUCTIONS TO VISIBILITY

IDZ012-014-260300-
SOUTHWEST IDAHO


CITY           SKY/WX    TMP DP  RH WIND       PRES   REMARKS
BOISE          CLEAR     69  33  26 W5        30.35F
CALDWELL       CLEAR     69  36  29 CALM      30.35F
MOUNTAIN HOME  CLEAR     69  31  24 N6        30.36S
$$

IDZ016-017-260300-
SOUTHCENTRAL IDAHO


CITY           SKY/WX    TMP DP  RH WIND       PRES   REMARKS
BURLEY         CLEAR     54  42  64 CALM      30.42S
JEROME         CLEAR     55  42  61 E3        30.43R
TWIN FALLS     CLEAR     51  43  74 S3        30.43S
$$

IDZ019>023-260300-
SOUTHEAST IDAHO


CITY           SKY/WX    TMP DP  RH WIND       PRES   REMARKS
IDAHO FALLS    CLEAR     59  38  45 S6        30.45R
POCATELLO      CLEAR     54  41  61 S5        30.44S
REXBURG        CLEAR     56  40  55 S5        30.44S
$$

IDZ006-010-011-018-031-032-260300-
CENTRAL IDAHO MOUNTAINS


CITY           SKY/WX    TMP DP  RH WIND       PRES   REMARKS
MCCALL         CLEAR     64  37  36 N5        30.45R
HAILEY         CLEAR     54  46  76 SE6       30.48S
STANLEY          N/A     54  41  61 CALM      30.51R
SALMON         CLEAR     57  39  51 CALM      30.40R
CHALLIS        CLEAR     60  39  45 CALM      30.43R
$$

IDZ002-004-006-007-026-260300-
NORTHERN IDAHO


CITY           SKY/WX    TMP DP  RH WIND       PRES   REMARKS
LEWISTON       CLEAR     74  39  28 NE5       30.32S
LOWELL           N/A     57  49  74 CALM      30.38R
COEUR D`ALENE  NOT AVBL
MULLAN PASS    CLEAR     50  38  63 VRB3      30.50S
$$



USA.gov is the U.S. government's official web portal to all federal, state and local government web resources and services.